This is the latest recevied weather packets stored in our database for station/object EA3DJ-10. If no packets are shown the sender has not sent any weather packets the latest 10 day(s).
| Time | Temp. | Humidity | Pressure | Rain* | Wind** | Luminosity | Snow |
|---|---|---|---|---|---|---|---|
| 1788460846 | 25° C | 50% | 1022.6 hPa | - | - | - | - |
| 1788459646 | 24.44° C | 53% | 1022.5 hPa | - | - | - | - |
| 1788458446 | 25° C | 57% | 1022.3 hPa | - | - | - | - |
| 1788457245 | 23.89° C | 45% | 1022.3 hPa | - | - | - | - |
| 1788456045 | 25° C | 48% | 1022.2 hPa | - | - | - | - |
| 1788454845 | 25.56° C | 52% | 1022.2 hPa | - | - | - | - |
| 1788453645 | 27.78° C | 51% | 1022 hPa | - | - | - | - |
| 1788452445 | 27.78° C | 51% | 1021.9 hPa | - | - | - | - |
| 1788451245 | 27.78° C | 50% | 1022.1 hPa | - | - | - | - |
| 1788450045 | 27.78° C | 50% | 1022.2 hPa | - | - | - | - |
| 1788448844 | 27.78° C | 50% | 1022.3 hPa | - | - | - | - |
| 1788447644 | 27.78° C | 50% | 1022.3 hPa | - | - | - | - |
| 1788446444 | 27.78° C | 50% | 1022.4 hPa | - | - | - | - |
| 1788445244 | 27.78° C | 50% | 1022.5 hPa | - | - | - | - |
| 1788444044 | 27.78° C | 50% | 1022.6 hPa | - | - | - | - |
| 1788442844 | 27.78° C | 50% | 1022.7 hPa | - | - | - | - |
| 1788441644 | 27.78° C | 49% | 1023 hPa | - | - | - | - |
| 1788440444 | 27.78° C | 48% | 1023.1 hPa | - | - | - | - |
| 1788439244 | 27.78° C | 48% | 1023.2 hPa | - | - | - | - |
| 1788438043 | 27.22° C | 48% | 1023.3 hPa | - | - | - | - |
| 1788436843 | 27.22° C | 48% | 1023.3 hPa | - | - | - | - |
| 1788435643 | 27.22° C | 49% | 1023.4 hPa | - | - | - | - |
| 1788434442 | 27.22° C | 49% | 1023.5 hPa | - | - | - | - |
| 1788433254 | 27.22° C | 49% | 1023.6 hPa | - | - | - | - |
| 1788432042 | 27.22° C | 49% | 1023.9 hPa | - | - | - | - |
* Rain since midnight (hover to see other rain measurements)
** Current wind speed in m/s (hover to see current wind gust speed)